Arlington, WA

7:14 AM PST on January 17, 2018 (GMT -0800)
Arlington Municipal

Weather History for KAWO - April, 2014

Change the Weather History Date:

Thursday, April 17, 2014

  Actual Average Record
Temperature  
Mean Temperature 48 °F -  
Max Temperature 53 °F 50 °F 73 °F (2016)
Min Temperature 44 °F 31 °F 30 °F (2006)
Degree Days  
Heating Degree Days 16    
Moisture  
Dew Point 45 °F    
Average Humidity 86    
Maximum Humidity 93    
Minimum Humidity 76    
Precipitation  
Precipitation 0.29 in - - ()
Sea Level Pressure  
Sea Level Pressure 29.84 in    
Wind  
Wind Speed 10 mph (SE)    
Max Wind Speed 21 mph    
Max Gust Speed 25 mph    
Visibility 10 miles    
Events      
Averages and records for this station are not official NWS values.
T = Trace of Precipitation, MM = Missing Value Source: NWS Daily Summary

Daily Weather History Graph

Daily Weather History Graph

Search for Another Location

Airport or City:

Trip Planner

Search our weather history database for the weather conditions in past years. The results will help you decide how hot, cold, wet, or windy it might be!

Date:

Astronomy

Apr. 17, 2014 Rise Set
Actual Time 6:14 AM PDT 8:02 PM PDT
Civil Twilight 5:41 AM PDT 8:35 PM PDT
Nautical Twilight 5:01 AM PDT 9:16 PM PDT
Astronomical Twilight 4:17 AM PDT 10:00 PM PDT
Moon 11:03 PM PDT 7:42 AM PDT
Length of Visible Light 14h 53m
Length of Day
13h 47m
Waning Gibbous, 93% of the Moon is Illuminated
Apr 17
Waning Gibbous
Apr 22
Last Quarter
Apr 28
New
May 6
First Quarter
May 14
Full

Hourly Weather History & Observations

Time (PDT) Temp. Windchill Dew Point Humidity Pressure Visibility Wind Dir Wind Speed Gust Speed Precip Events Conditions
12:15 AM 48.2 °F - 44.6 °F 87% 29.93 in 10.0 mi SE 13.8 mph - N/A   Overcast
12:35 AM 48.2 °F - 44.6 °F 87% 29.93 in 10.0 mi SE 15.0 mph - N/A   Overcast
12:55 AM 48.2 °F - 44.6 °F 87% 29.92 in 10.0 mi SE 13.8 mph - N/A   Overcast
1:15 AM 48.2 °F - 44.6 °F 87% 29.92 in 10.0 mi SE 15.0 mph - N/A   Overcast
1:35 AM 48.2 °F - 44.6 °F 87% 29.91 in 10.0 mi SE 12.7 mph - N/A   Overcast
1:55 AM 48.2 °F - 44.6 °F 87% 29.91 in 10.0 mi SE 11.5 mph - N/A   Overcast
2:15 AM 48.2 °F - 44.6 °F 87% 29.90 in 10.0 mi SE 10.4 mph - N/A   Overcast
2:35 AM 48.2 °F - 44.6 °F 87% 29.90 in 10.0 mi SSE 9.2 mph - N/A   Overcast
2:55 AM 48.2 °F - 46.4 °F 93% 29.91 in 6.0 mi South 6.9 mph - 0.01 in   Overcast
3:15 AM 48.2 °F - 46.4 °F 93% 29.91 in 4.0 mi South 6.9 mph - N/A   Overcast
3:35 AM 48.2 °F - 46.4 °F 93% 29.91 in 5.0 mi South 3.5 mph - 0.01 in   Overcast
3:55 AM 48.2 °F - 46.4 °F 93% 29.90 in 9.0 mi SSE 5.8 mph - 0.01 in   Overcast
4:15 AM 48.2 °F - 46.4 °F 93% 29.90 in 10.0 mi SSE 5.8 mph - N/A   Overcast
4:35 AM 48.2 °F - 46.4 °F 93% 29.90 in 10.0 mi SSE 4.6 mph - N/A   Overcast
4:55 AM 48.2 °F - 46.4 °F 93% 29.90 in 10.0 mi Calm Calm - N/A   Overcast
5:15 AM 48.2 °F - 46.4 °F 93% 29.89 in 10.0 mi Calm Calm - N/A   Overcast
5:35 AM 48.2 °F - 46.4 °F 93% 29.89 in 10.0 mi Calm Calm - N/A   Overcast
5:55 AM 48.2 °F - 46.4 °F 93% 29.88 in 10.0 mi Calm Calm - N/A   Overcast
6:15 AM 48.2 °F - 46.4 °F 93% 29.88 in 10.0 mi Calm Calm - N/A   Overcast
6:35 AM 48.2 °F - 46.4 °F 93% 29.87 in 10.0 mi ENE 3.5 mph - N/A   Overcast
6:55 AM 48.2 °F - 46.4 °F 93% 29.87 in 10.0 mi ESE 3.5 mph - N/A   Overcast
7:15 AM 50.0 °F - 46.4 °F 87% 29.87 in 10.0 mi East 5.8 mph - N/A   Overcast
7:35 AM 50.0 °F - 46.4 °F 87% 29.86 in 10.0 mi ESE 6.9 mph - N/A   Overcast
7:55 AM 50.0 °F - 46.4 °F 87% 29.86 in 9.0 mi ESE 6.9 mph - N/A   Overcast
8:15 AM 50.0 °F - 46.4 °F 87% 29.86 in 10.0 mi ESE 8.1 mph - N/A   Overcast
8:35 AM 50.0 °F - 46.4 °F 87% 29.86 in 10.0 mi SE 9.2 mph - N/A   Overcast
9:15 AM 51.8 °F - 46.4 °F 82% 29.84 in 10.0 mi SE 9.2 mph - N/A   Overcast
9:35 AM 51.8 °F - 46.4 °F 82% 29.84 in 10.0 mi ESE 10.4 mph - N/A   Overcast
9:55 AM 51.8 °F - 46.4 °F 82% 29.84 in 10.0 mi SE 9.2 mph - N/A   Overcast
10:15 AM 51.8 °F - 46.4 °F 82% 29.84 in 10.0 mi ESE 8.1 mph - N/A   Overcast
10:35 AM 51.8 °F - 46.4 °F 82% 29.83 in 5.0 mi SE 8.1 mph - N/A   Overcast
10:55 AM 51.8 °F - 46.4 °F 82% 29.83 in 10.0 mi SSE 6.9 mph - N/A   Overcast
11:15 AM 51.8 °F - 48.2 °F 88% 29.82 in 10.0 mi SSE 11.5 mph - N/A   Overcast
11:35 AM 51.8 °F - 48.2 °F 88% 29.82 in 10.0 mi SSE 11.5 mph - N/A   Overcast
11:55 AM 51.8 °F - 48.2 °F 88% 29.82 in 10.0 mi SSE 12.7 mph - N/A   Overcast
12:15 PM 51.8 °F - 48.2 °F 88% 29.81 in 10.0 mi SE 13.8 mph 18.4 mph N/A   Overcast
12:35 PM 51.8 °F - 48.2 °F 88% 29.81 in 10.0 mi SE 12.7 mph - N/A   Overcast
12:55 PM 51.8 °F - 48.2 °F 88% 29.81 in 10.0 mi SSE 12.7 mph - N/A   Overcast
1:15 PM 51.8 °F - 46.4 °F 82% 29.81 in 10.0 mi SSE 16.1 mph - N/A   Overcast
1:35 PM 53.6 °F - 48.2 °F 82% 29.80 in 10.0 mi SSE 15.0 mph 20.7 mph N/A   Overcast
1:55 PM 53.6 °F - 46.4 °F 77% 29.80 in 10.0 mi SSE 15.0 mph 23.0 mph N/A   Overcast
2:15 PM 53.6 °F - 48.2 °F 82% 29.80 in 10.0 mi SSE 13.8 mph 21.9 mph N/A   Overcast
2:35 PM 51.8 °F - 48.2 °F 88% 29.79 in 10.0 mi SSE 13.8 mph - N/A   Mostly Cloudy
2:55 PM 53.6 °F - 48.2 °F 82% 29.79 in 10.0 mi SSE 12.7 mph - N/A   Overcast
3:15 PM 51.8 °F - 48.2 °F 88% 29.78 in 10.0 mi SSE 13.8 mph 19.6 mph N/A   Overcast
3:35 PM 53.6 °F - 48.2 °F 82% 29.77 in 10.0 mi SE 13.8 mph - N/A   Mostly Cloudy
3:55 PM 51.8 °F - 48.2 °F 88% 29.77 in 9.0 mi SSE 12.7 mph 21.9 mph 0.01 in   Overcast
4:15 PM 51.8 °F - 48.2 °F 88% 29.77 in 10.0 mi SSE 17.3 mph 21.9 mph N/A   Overcast
4:35 PM 51.8 °F - 46.4 °F 82% 29.76 in 10.0 mi SE 18.4 mph - N/A   Overcast
4:55 PM 51.8 °F - 46.4 °F 82% 29.76 in 10.0 mi SSE 20.7 mph 24.2 mph N/A   Mostly Cloudy
5:15 PM 51.8 °F - 46.4 °F 82% 29.76 in 10.0 mi SSE 17.3 mph 23.0 mph 0.01 in   Overcast
5:35 PM 50.0 °F - 44.6 °F 82% 29.76 in 10.0 mi SSE 15.0 mph - 0.01 in   Overcast
5:55 PM 51.8 °F - 46.4 °F 82% 29.76 in 10.0 mi SE 18.4 mph 25.3 mph 0.01 in   Overcast
6:15 PM 50.0 °F - 46.4 °F 87% 29.75 in 10.0 mi SE 16.1 mph 24.2 mph 0.01 in   Overcast
6:35 PM 50.0 °F - 46.4 °F 87% 29.75 in 10.0 mi SE 17.3 mph - 0.01 in   Overcast
6:55 PM 50.0 °F - 46.4 °F 87% 29.75 in 10.0 mi SE 16.1 mph - 0.01 in   Mostly Cloudy
7:15 PM 50.0 °F - 44.6 °F 82% 29.75 in 9.0 mi SSE 13.8 mph 17.3 mph 0.01 in   Overcast
7:35 PM 48.2 °F - 44.6 °F 87% 29.77 in 8.0 mi NW 15.0 mph 19.6 mph 0.06 in   Mostly Cloudy
7:55 PM 44.6 °F 42.2 °F 39.2 °F 81% 29.78 in 10.0 mi NW 4.6 mph - 0.22 in   Overcast
8:15 PM 44.6 °F 43.1 °F 41.0 °F 87% 29.80 in 10.0 mi NNW 3.5 mph - 0.02 in   Overcast
8:35 PM 44.6 °F 41.4 °F 41.0 °F 87% 29.81 in 10.0 mi NNE 5.8 mph - 0.02 in   Overcast
8:55 PM 44.6 °F 41.4 °F 42.8 °F 93% 29.82 in 10.0 mi NE 5.8 mph - 0.02 in   Overcast
9:15 PM 46.4 °F 42.9 °F 41.0 °F 81% 29.83 in 10.0 mi NNE 6.9 mph - N/A   Overcast
9:35 PM 44.6 °F 42.2 °F 39.2 °F 81% 29.84 in 10.0 mi NNE 4.6 mph - N/A   Overcast
9:55 PM 46.4 °F 44.3 °F 39.2 °F 76% 29.85 in 10.0 mi North 4.6 mph - N/A   Overcast
10:15 PM 44.6 °F 41.4 °F 39.2 °F 81% 29.85 in 10.0 mi NNW 5.8 mph - N/A   Mostly Cloudy
10:35 PM 44.6 °F 40.2 °F 37.4 °F 76% 29.87 in 10.0 mi North 8.1 mph - N/A   Partly Cloudy
10:55 PM 44.6 °F 40.7 °F 37.4 °F 76% 29.88 in 10.0 mi NNW 6.9 mph - N/A   Partly Cloudy
11:15 PM 44.6 °F 42.2 °F 37.4 °F 76% 29.90 in 10.0 mi NNW 4.6 mph - N/A   Clear
11:35 PM 44.6 °F 43.1 °F 37.4 °F 76% 29.90 in 10.0 mi NE 3.5 mph - N/A   Partly Cloudy
11:55 PM 44.6 °F 41.4 °F 37.4 °F 76% 29.91 in 10.0 mi East 5.8 mph - N/A   Clear